Location: Melizzano
(41.1500°N, 14.5000°E)
Time: 09:00:10
(UTC+00:00)

Cosmos 1782 - Pass Details

Date: 11 May 2021
Orbit: 537 x 550 km, 82.5° (Epoch: 15 June)

Event Time Altitude Azimuth Distance (km) Brightness Sun altitude
Exits shadow 18:47:22 - 139° (SE) 1,989 5.0 -7.1°
Reaches altitude 10° 18:47:56 10° 134° (SE) 1,815 4.8 -7.2°
Maximum altitude 18:50:48 19° 88° (E) 1,333 4.3 -7.6°
Drops below altitude 10° 18:53:39 10° 42° (NE) 1,821 5.4 -8.1°
Sets 18:56:17 0° 25° (NNE) 2,716 6.5 -8.5°
